PPUUU ZBAA-ZBTJ

Flight info

Callsign PPUUU
Flight time N/A
Altitude 4900
Route PEK WF TAJ
Aircraft A109/L-SBDE1E2E3FGHIJ1J4J5J7M3RWXYZ/LB1V1D1

Departure

Time 2026-05-05 05:50
Airport Beijing Capital International Airport (ZBAA)

Arrival

Time N/A
Airport Tianjin Binhai International Airport (ZBTJ)
Time Latitude Longitude Altitude Speed Heading
2026-05-05 05:31 40.09177 116.60802 119 ft 0 kts 83°
2026-05-05 05:47 40.09180 116.60834 119 ft 2 kts 83°
2026-05-05 05:48 40.09181 116.60842 119 ft 3 kts 85°
2026-05-05 05:48 40.09186 116.60899 119 ft 10 kts 86°
2026-05-05 05:48 40.09199 116.61047 119 ft 25 kts 83°
2026-05-05 05:48 40.09205 116.61098 119 ft 0 kts 87°
2026-05-05 05:49 40.09211 116.61169 119 ft 13 kts 88°
2026-05-05 05:49 40.09177 116.61238 119 ft 14 kts 184°
2026-05-05 05:49 40.08903 116.61234 395 ft 57 kts 146°
2026-05-05 05:49 40.08646 116.61565 642 ft 63 kts 105°
2026-05-05 05:50 40.08491 116.62222 824 ft 90 kts 106°
2026-05-05 05:50 40.08348 116.63140 1009 ft 113 kts 104°
2026-05-05 05:50 40.08205 116.64191 1198 ft 126 kts 104°
2026-05-05 05:50 40.08055 116.65382 1385 ft 138 kts 104°
2026-05-05 05:51 40.07691 116.66518 1596 ft 134 kts 126°
2026-05-05 05:51 40.07247 116.67585 1785 ft 134 kts 123°
2026-05-05 05:51 40.06841 116.68663 1976 ft 133 kts 123°
2026-05-05 05:51 40.06425 116.69751 2169 ft 133 kts 124°
2026-05-05 05:52 40.06010 116.70839 2351 ft 135 kts 125°
2026-05-05 05:52 40.05591 116.71930 2540 ft 134 kts 125°
2026-05-05 05:52 40.05162 116.73019 2736 ft 135 kts 128°
2026-05-05 05:52 40.04619 116.73998 2932 ft 132 kts 141°
2026-05-05 05:53 40.03978 116.74841 3120 ft 132 kts 144°
2026-05-05 05:53 40.03335 116.75713 3313 ft 134 kts 142°
2026-05-05 05:53 40.02689 116.76588 3493 ft 134 kts 143°
2026-05-05 05:53 40.02047 116.77464 3673 ft 134 kts 143°
2026-05-05 05:54 40.01399 116.78342 3860 ft 135 kts 143°
2026-05-05 05:54 40.00743 116.79230 4058 ft 136 kts 143°
2026-05-05 05:54 40.00087 116.80118 4255 ft 136 kts 143°
2026-05-05 05:54 39.99426 116.81010 4458 ft 137 kts 143°
2026-05-05 05:55 39.98772 116.81902 4638 ft 137 kts 143°
2026-05-05 05:55 39.98102 116.82807 4755 ft 137 kts 143°
2026-05-05 05:55 39.97439 116.83704 4810 ft 137 kts 143°
2026-05-05 05:55 39.96773 116.84603 4844 ft 138 kts 143°
2026-05-05 05:56 39.96104 116.85504 4861 ft 139 kts 143°
2026-05-05 05:56 39.95437 116.86407 4868 ft 138 kts 143°
2026-05-05 05:56 39.94756 116.87274 4870 ft 135 kts 153°
2026-05-05 05:56 39.93916 116.87678 4878 ft 124 kts 184°
2026-05-05 05:57 39.93062 116.87628 4881 ft 123 kts 187°
2026-05-05 05:57 39.92199 116.87667 4885 ft 124 kts 183°
2026-05-05 05:57 39.91332 116.87709 4873 ft 124 kts 184°
2026-05-05 05:57 39.90471 116.87739 4866 ft 124 kts 184°
2026-05-05 05:58 39.89609 116.87776 4865 ft 125 kts 184°
2026-05-05 05:58 39.88741 116.87815 4870 ft 123 kts 184°
2026-05-05 05:58 39.87878 116.87849 4866 ft 123 kts 184°
2026-05-05 05:58 39.87015 116.87885 4863 ft 123 kts 184°
2026-05-05 05:59 39.86170 116.87925 4859 ft 123 kts 184°
2026-05-05 05:59 39.85311 116.87959 4858 ft 122 kts 184°
2026-05-05 05:59 39.84459 116.87997 4861 ft 123 kts 184°
2026-05-05 05:59 39.83605 116.88032 4860 ft 123 kts 185°
2026-05-05 06:00 39.82736 116.88071 4858 ft 123 kts 184°
2026-05-05 06:00 39.81874 116.88108 4857 ft 123 kts 184°
2026-05-05 06:00 39.81023 116.88142 4858 ft 123 kts 184°
2026-05-05 06:00 39.80154 116.88178 4862 ft 124 kts 184°
2026-05-05 06:01 39.79288 116.88216 4856 ft 124 kts 184°
2026-05-05 06:01 39.78430 116.88251 4852 ft 124 kts 184°
2026-05-05 06:01 39.77564 116.88289 4852 ft 124 kts 184°
2026-05-05 06:01 39.76698 116.88325 4851 ft 124 kts 184°
2026-05-05 06:02 39.75831 116.88361 4851 ft 124 kts 184°
2026-05-05 06:02 39.74966 116.88400 4853 ft 123 kts 184°
2026-05-05 06:02 39.74103 116.88439 4857 ft 122 kts 184°
2026-05-05 06:02 39.73255 116.88473 4861 ft 122 kts 185°
2026-05-05 06:03 39.72396 116.88512 4870 ft 122 kts 184°
2026-05-05 06:03 39.71554 116.88548 4875 ft 121 kts 185°
2026-05-05 06:03 39.70703 116.88584 4875 ft 121 kts 184°
2026-05-05 06:03 39.69864 116.88616 4880 ft 121 kts 184°
2026-05-05 06:04 39.69024 116.88660 4838 ft 117 kts 183°
2026-05-05 06:04 39.68221 116.88695 4649 ft 116 kts 185°
2026-05-05 06:04 39.67413 116.88731 4464 ft 114 kts 184°
2026-05-05 06:04 39.66666 116.88767 4278 ft 106 kts 186°
2026-05-05 06:05 39.65924 116.88801 4289 ft 106 kts 185°
2026-05-05 06:05 39.65183 116.88827 4107 ft 106 kts 185°
2026-05-05 06:05 39.64441 116.88856 3921 ft 106 kts 185°
2026-05-05 06:05 39.63702 116.88892 3734 ft 106 kts 185°
2026-05-05 06:06 39.62973 116.88928 3552 ft 105 kts 185°
2026-05-05 06:06 39.62246 116.88954 3364 ft 104 kts 185°
2026-05-05 06:06 39.61519 116.88976 3181 ft 104 kts 185°
2026-05-05 06:06 39.60798 116.89003 3081 ft 104 kts 185°
2026-05-05 06:07 39.60070 116.89033 3037 ft 104 kts 185°
2026-05-05 06:07 39.59351 116.89064 3015 ft 103 kts 185°
2026-05-05 06:07 39.58628 116.89089 2975 ft 104 kts 184°
2026-05-05 06:07 39.57894 116.89121 2902 ft 106 kts 182°
2026-05-05 06:08 39.57156 116.89153 2701 ft 107 kts 184°
2026-05-05 06:08 39.56420 116.89189 2476 ft 106 kts 184°
2026-05-05 06:08 39.55679 116.89221 2318 ft 106 kts 184°
2026-05-05 06:08 39.54947 116.89255 2286 ft 104 kts 185°
2026-05-05 06:09 39.54229 116.89287 2289 ft 103 kts 185°
2026-05-05 06:09 39.53565 116.89334 2294 ft 85 kts 182°
2026-05-05 06:09 39.53068 116.89437 2284 ft 58 kts 181°
2026-05-05 06:09 39.52766 116.89568 2223 ft 35 kts 183°
2026-05-05 06:10 39.52580 116.89680 2154 ft 25 kts 195°
2026-05-05 06:10 39.52422 116.89727 2093 ft 22 kts 205°
2026-05-05 06:10 39.52307 116.89703 2034 ft 7 kts 207°
2026-05-05 06:10 39.52323 116.89677 1940 ft 1 kts 206°
2026-05-05 06:11 39.52314 116.89693 1889 ft 2 kts 206°
2026-05-05 06:11 39.52317 116.89683 1875 ft 3 kts 206°
2026-05-05 06:11 39.52314 116.89688 1851 ft 2 kts 206°
2026-05-05 06:11 39.52315 116.89687 1841 ft 2 kts 206°
2026-05-05 06:12 39.52315 116.89684 1841 ft 2 kts 206°
2026-05-05 06:12 39.52314 116.89688 1842 ft 1 kts 206°
2026-05-05 06:12 39.52316 116.89683 1840 ft 1 kts 206°
2026-05-05 06:12 39.52313 116.89690 1840 ft 0 kts 206°
2026-05-05 06:13 39.52316 116.89683 1839 ft 0 kts 206°
2026-05-05 06:13 39.52313 116.89690 1838 ft 0 kts 206°
2026-05-05 06:13 39.52315 116.89684 1836 ft 0 kts 206°
2026-05-05 06:13 39.52314 116.89688 1838 ft 0 kts 206°
2026-05-05 06:14 39.52315 116.89686 1837 ft 1 kts 206°
2026-05-05 06:14 39.52314 116.89687 1835 ft 0 kts 206°
2026-05-05 06:14 39.52315 116.89684 1837 ft 0 kts 206°
2026-05-05 06:15 39.52314 116.89687 1834 ft 0 kts 206°
2026-05-05 06:15 39.52315 116.89684 1838 ft 0 kts 206°
2026-05-05 06:15 39.52314 116.89687 1837 ft 0 kts 206°
2026-05-05 06:15 39.52315 116.89685 1836 ft 0 kts 206°
2026-05-05 06:16 39.52314 116.89687 1838 ft 0 kts 206°
2026-05-05 06:16 39.52315 116.89686 1839 ft 0 kts 206°
2026-05-05 06:16 39.52314 116.89687 1840 ft 0 kts 206°
2026-05-05 06:17 39.52315 116.89686 1838 ft 0 kts 206°
2026-05-05 06:17 39.52314 116.89687 1838 ft 0 kts 206°
2026-05-05 06:17 39.52315 116.89686 1836 ft 0 kts 206°
2026-05-05 06:17 39.52314 116.89687 1841 ft 0 kts 206°
2026-05-05 06:18 39.52314 116.89686 1840 ft 0 kts 206°
2026-05-05 06:18 39.52314 116.89687 1838 ft 0 kts 206°
2026-05-05 06:18 39.52315 116.89685 1838 ft 0 kts 206°
2026-05-05 06:18 39.52314 116.89687 1838 ft 0 kts 206°
2026-05-05 06:19 39.52315 116.89685 1837 ft 0 kts 206°
2026-05-05 06:19 39.52315 116.89686 1839 ft 0 kts 206°
2026-05-05 06:19 39.52315 116.89685 1835 ft 0 kts 206°
2026-05-05 06:19 39.52314 116.89687 1842 ft 0 kts 206°
2026-05-05 06:20 39.52315 116.89685 1841 ft 0 kts 206°
2026-05-05 06:20 39.52314 116.89687 1840 ft 0 kts 206°
2026-05-05 06:20 39.52316 116.89684 1839 ft 0 kts 209°
2026-05-05 06:20 39.52316 116.89683 1840 ft 0 kts 209°
2026-05-05 06:21 39.52313 116.89693 1842 ft 1 kts 209°
2026-05-05 06:21 39.52299 116.89693 1849 ft 7 kts 208°
2026-05-05 06:21 39.52247 116.89560 1842 ft 26 kts 209°
2026-05-05 06:21 39.52043 116.89441 1842 ft 39 kts 198°
2026-05-05 06:22 39.51677 116.89365 1836 ft 66 kts 191°
2026-05-05 06:22 39.51160 116.89322 1851 ft 79 kts 186°
2026-05-05 06:22 39.50582 116.89349 1831 ft 93 kts 184°
2026-05-05 06:22 39.49838 116.89378 1812 ft 118 kts 184°
2026-05-05 06:23 39.48966 116.89429 1834 ft 130 kts 180°
2026-05-05 06:23 39.48049 116.89571 1834 ft 137 kts 176°
2026-05-05 06:23 39.47087 116.89799 1837 ft 142 kts 173°
2026-05-05 06:23 39.46116 116.90105 1964 ft 144 kts 172°
2026-05-05 06:24 39.45142 116.90445 2170 ft 144 kts 171°
2026-05-05 06:24 39.44184 116.90826 2390 ft 143 kts 169°
2026-05-05 06:24 39.43240 116.91250 2611 ft 143 kts 167°
2026-05-05 06:24 39.42310 116.91714 2833 ft 144 kts 166°
2026-05-05 06:25 39.41396 116.92216 3033 ft 144 kts 164°
2026-05-05 06:25 39.40447 116.92298 3213 ft 135 kts 201°
2026-05-05 06:25 39.39608 116.91806 3422 ft 133 kts 208°
2026-05-05 06:25 39.38753 116.91242 3530 ft 139 kts 208°
2026-05-05 06:26 39.37884 116.90658 3636 ft 142 kts 208°
2026-05-05 06:26 39.37017 116.90076 3839 ft 140 kts 207°
2026-05-05 06:26 39.36039 116.89986 3999 ft 144 kts 177°
2026-05-05 06:26 39.35057 116.90093 4215 ft 140 kts 185°
2026-05-05 06:27 39.34076 116.90108 4406 ft 141 kts 183°
2026-05-05 06:27 39.32217 116.90194 4808 ft 139 kts 184°
2026-05-05 06:27 39.31253 116.90237 5016 ft 138 kts 184°
2026-05-05 06:28 39.30306 116.90350 5225 ft 140 kts 176°
2026-05-05 06:28 39.29415 116.90948 5408 ft 153 kts 144°
2026-05-05 06:28 39.28859 116.92147 5636 ft 158 kts 124°
2026-05-05 06:28 39.28382 116.93420 5847 ft 157 kts 127°
2026-05-05 06:29 39.27869 116.94662 5971 ft 158 kts 124°
2026-05-05 06:29 39.27574 116.95394 5857 ft 164 kts 125°